Flag for Germany Weather past 2 weeks in Warstein, North Rhine-Westphalia, Germany

Now
73 °F

Scattered clouds.


Feels Like: 76 °F
Forecast: 58 / 75 °F
Wind: 2 mph from North

Location: Paderborn / Lippstadt

Current Time: Jul 26, 2014 at 2:07:35 PM

Latest Report: Jul 26, 2014 at 1:20 PM


Visibility: N/A

Pressure: 29.95 "Hg

Humidity: 61%

Dew point: 59 °F

Location of WarsteinLocation

Historic Weather in Warstein — Graph

°F

Warstein temperature yesterday

Maximum temperature yesterday: 68 °F (at 5:50 PM)
Minimum temperature yesterday: 59 °F (at 1:20 AM)
Average temperature yesterday: 62 °F

Past Weeks' High & Low Weather Summary

 TemperatureHumidityPressure
High88 °F (Jul 19, 1:50 PM)100% (Jul 11, 11:50 PM)30.21 "Hg (Jul 11, 11:50 PM)
Low54 °F (Jul 15, 3:20 AM)27% (Jul 19, 1:20 PM)29.74 "Hg (Jul 13, 3:20 PM)
Average68 °F70%30.00 "Hg
* Reported Jul 11 12:20 PM — Jul 26 12:50 PM, Warstein, Weather by CustomWeather, © 2014

Note: Actual official high and low records may vary slightly from our data, if they occured in-between our weather recording intervals... More about our weather records

Advertising

Warstein weather history for previous 24 hours

 ConditionsComfort  
Time TempWeatherWind HumidityBarometerVisibility
12:50 PM
Jul 26
73 °FSunny.3 mph57%29.95 "Hg10 mi
12:20 PM72 °FPassing clouds.5 mph61%29.95 "HgN/A
11:50 AM70 °FSunny.3 mph64%29.95 "Hg10 mi
11:20 AM70 °FSunny.3 mph69%29.95 "Hg10 mi
10:50 AM68 °FSunny.3 mph69%29.95 "Hg10 mi
10:20 AM66 °FPassing clouds.3 mph78%29.95 "HgN/A
9:50 AM66 °FPassing clouds.2 mph78%29.95 "Hg6 mi
9:20 AM66 °FPassing clouds.2 mph78%29.95 "Hg6 mi
8:50 AM63 °FPassing clouds.2 mph83%29.95 "Hg5 mi
8:20 AM63 °FClear.1 mph94%29.95 "Hg4 mi
7:50 AM61 °FClear.1 mph100%29.92 "Hg4 mi
7:20 AM59 °FClear.1 mph94%29.95 "Hg4 mi
6:50 AM57 °FClear.2 mph100%29.92 "Hg4 mi
6:20 AM55 °FFog.1 mph100%29.92 "Hg3 mi
5:50 AM55 °FFog.1 mph100%29.92 "Hg3 mi
5:20 AM57 °FFog.3 mph100%29.92 "Hg4 mi
4:50 AM57 °FPassing clouds.3 mph94%29.92 "Hg5 mi
4:20 AM59 °FPassing clouds.6 mph100%29.92 "Hg5 mi
3:50 AM59 °FPartly cloudy.7 mph100%29.92 "HgN/A
12:20 AM57 °FClear.2 mph100%29.95 "Hg10 mi
11:50 PM
Jul 25
59 °FClear.2 mph94%29.95 "Hg10 mi
11:20 PM61 °FClear.5 mph94%29.95 "Hg10 mi
10:50 PM61 °FPassing clouds.3 mph94%29.95 "HgN/A
10:20 PM59 °FScattered clouds.2 mph100%29.95 "HgN/A
9:50 PM61 °FScattered clouds.1 mph94%29.95 "Hg5 mi
9:20 PM61 °FPassing clouds.3 mph94%29.95 "HgN/A
8:50 PM63 °FSunny.3 mph88%29.95 "Hg10 mi
8:20 PM64 °FPassing clouds.2 mph83%29.95 "HgN/A
7:50 PM66 °FPassing clouds.6 mph73%29.92 "HgN/A
7:20 PM68 °FPassing clouds.8 mph73%29.95 "HgN/A
6:50 PM68 °FPassing clouds.8 mph69%29.95 "HgN/A
6:20 PM66 °FScattered clouds.8 mph73%29.95 "HgN/A
5:50 PM68 °FScattered clouds.7 mph73%29.95 "HgN/A
5:20 PM66 °FScattered clouds.6 mph73%29.95 "HgN/A
4:50 PM66 °FBroken clouds.6 mph78%29.95 "HgN/A
4:20 PM66 °FBroken clouds.5 mph78%29.95 "HgN/A
3:50 PM66 °FBroken clouds.5 mph73%29.95 "HgN/A
3:20 PM66 °FBroken clouds.3 mph78%29.98 "HgN/A
2:20 PM64 °FBroken clouds.3 mph88%29.98 "HgN/A
2:03 PM64 °FBroken clouds.3 mph88%29.98 "Hg6 mi
Weather by CustomWeather, © 2014

See weather overviewHow to use our weather pages